Regional Weather Roundup
Issued by NWS

Home | Current Version | Previous Version | Graphics & Text | Print | Product List | Glossary On
Versions: 1 2 3 4 5 6 7 8 9 10 11 12 13 14 15 16 17 18 19 20 21 22 23 24 25 26 27 28 29 30 31 32 33 34 35 36 37 38 39 40 41 42 43 44 45 46 47 48 49 50
000
ASUS43 KBIS 231010
RWRND
NORTH DAKOTA REGIONAL WEATHER ROUNDUP
NATIONAL WEATHER SERVICE EASTERN NORTH DAKOTA/GRAND FORKS ND
400 AM CST FRI FEB 23 2018

  NOTE: "FAIR" INDICATES FEW OR NO CLOUDS BELOW 12,000 FEET WITH NO
  SIGNIFICANT WEATHER AND/OR OBSTRUCTIONS TO VISIBILITY.

NDZ001>003-009>011-017-231100-
...NORTHWEST NORTH DAKOTA...

CITY           SKY/WX    TMP DP  RH WIND       PRES   REMARKS
WILLISTON      CLOUDY    -8 -13  78 SW6       30.24F WCI -21
MINOT          FAIR       5  -2  72 W15       30.18F WCI -13
MINOT AFB      FAIR       0  -6  78 NW10      30.17F WCI -16
$$

NDZ018>021-031>035-040>046-231100-
...SOUTHWEST NORTH DAKOTA...

CITY           SKY/WX    TMP DP  RH WIND       PRES   REMARKS
BISMARCK       MOCLDY    10   2  69 NW10      30.19S WCI  -4
DICKINSON      FAIR      -2  -8  76 NW14      30.13S WCI -21
GARRISON         N/A     -5 -10  79 NW12      30.18S WCI -23
HETTINGER      FAIR      -3  -9  75 NW13      30.14F WCI -22
$$

NDZ004>008-012>016-024-026-027-054-231100-
...NORTHEAST NORTH DAKOTA...

CITY           SKY/WX    TMP DP  RH WIND       PRES   REMARKS
GRAND FORKS    LGT SNOW  17  15  92 NW5       30.14F FOG     WCI  10
GRAND FORKS AF FLURRIES  16  13  87 NW6       30.14F WCI   7
DEVILS LAKE    CLOUDY     7   2  80 NW9       30.14F WCI  -7
$$

NDZ022-023-025-028>030-036>039-047>053-231100-
...SOUTHEAST NORTH DAKOTA...

CITY           SKY/WX    TMP DP  RH WIND       PRES   REMARKS
JAMESTOWN      LGT SNOW  15  12  88 NW12      30.12S FOG     WCI   2
FARGO          LGT SNOW  20  18  92 N7        30.12F FOG     WCI  11
WAHPETON       CLOUDY    21  19  93 N5        30.11S WCI  15
$$




USA.gov is the U.S. government's official web portal to all federal, state and local government web resources and services.